#timestamp,LO_Frequency,Hit,StdDev 
1606799935.4,286047016.6,P
1606799955.2,286047016.1,P
1606799975.0,286047016.2,P
1606799975.9,286047016.2,Y
1606799995.8,286047001.5,P
1606800015.6,286046999.8,N
1606800035.4,286047002.3,N
1606800055.3,286047004.0,N
1606800075.1,286047003.1,N
1606800095.9,286047002.9,N
1606800115.7,286047004.0,N
1606800135.5,286047004.1,N
1606800155.4,286047002.9,N
1606800175.2,286047004.9,N
1606800195.0,286047003.3,N
1606800195.9,286047003.3,N
1606800215.8,286047004.3,N
1606800235.6,286047004.3,N
1606800255.5,286047005.9,N
1606800275.3,286047004.5,N
1606800295.1,286047007.7,N
1606800315.9,286047009.3,N
1606800335.7,286047006.3,N
1606800355.5,286047007.4,N
1606800375.4,286047007.3,N
1606800395.2,286047004.8,N
1606800415.1,286047003.3,N
1606800416.0,286047003.3,N
1606800435.8,286047005.5,N
1606800455.6,286047005.2,N
1606800475.5,286047005.5,N
1606800495.3,286047007.5,N
1606800515.1,286047006.4,N
1606800535.9,286047006.8,N
1606800555.7,286047005.2,N
1606800575.6,286047002.9,N
1606800595.4,286047003.6,N
1606800615.2,286047001.8,N
1606800635.1,286047002.8,N
1606800636.0,286047002.8,N
1606800655.8,286047004.3,N
1606800675.6,286047002.2,N
1606800695.5,286047003.9,N
1606800715.3,286047004.2,N
1606800735.2,286047003.6,N
1606800755.9,286047003.1,N
1606800775.7,286047006.0,Y
1606800795.6,286046998.5,P
1606800815.4,286046998.4,N
1606800835.2,286047000.2,N
1606800855.1,286047000.9,N
1606800856.0,286047011.9,Y
1606800875.8,286046999.9,P
1606800895.7,286047003.1,P
1606800915.5,286047006.5,P
1606800935.3,286047006.5,N
1606800955.2,286047008.2,N
1606800975.0,286047007.7,N
1606800975.9,286047007.7,N
1606800995.8,286047010.5,Y
1606801015.6,286047005.9,P
1606801035.4,286047007.8,P
1606801055.3,286047010.4,P
1606801075.1,286047010.9,Y
1606801095.8,286047001.8,P
1606801115.7,286047001.7,N
1606801135.5,286047001.4,N
1606801155.4,286047001.7,N
1606801175.2,286047002.4,N
1606801195.0,286047000.6,N
1606801195.9,286047000.6,N
1606801215.8,286047000.3,N
1606801235.6,286046999.4,N
1606801255.4,286046998.7,N
1606801275.3,286046996.9,N
1606801295.1,286046997.0,N
1606801315.9,286046996.9,N
1606801335.7,286046996.5,N
1606801355.5,286046999.0,N
1606801375.4,286046998.3,N
1606801395.2,286046996.8,N
1606801415.0,286047000.8,N
1606801415.9,286047000.8,N
1606801435.8,286047000.5,N
1606801455.6,286047000.1,N
1606801505.5,286047003.4,E
1606801515.4,286047004.4,N
1606801535.2,286047004.1,P
1606801555.1,286047004.3,P
1606801556.0,286047004.3,Y
1606801575.8,286046996.6,P
1606801595.7,286046997.0,N
1606801615.5,286046996.8,N
1606801635.3,286046996.8,N
1606801655.2,286046998.7,N
1606801675.0,286047000.5,N
1606801675.9,286047000.5,N
1606801695.8,286047001.2,N
1606801715.6,286046999.6,N
1606801735.4,286047000.7,N
1606801755.3,286047000.0,N
1606801775.1,286047000.8,N
1606801795.8,286046998.4,N
1606801815.7,286046994.9,N
1606801835.5,286046994.3,N
1606801855.4,286046991.8,Y
1606801875.2,286046994.1,P
1606801895.0,286046994.5,N
1606801895.9,286046994.5,N
1606801915.8,286046991.9,Y
1606801935.6,286046997.9,P
1606801955.4,286046995.8,P
1606801975.3,286046995.8,P
1606801995.1,286046993.5,Y
1606802015.9,286046996.8,P
1606802035.7,286046996.7,P
1606802055.5,286047000.8,P
1606802075.4,286047000.9,N
1606802095.2,286047002.6,N
1606802115.1,286047002.7,N
1606802116.0,286047002.7,N
1606802135.8,286047002.1,N
1606802155.6,286047000.0,N
1606802175.5,286047004.3,N
1606802195.3,286047004.4,N
1606802215.1,286047003.6,N
1606802235.9,286047003.6,N
1606802255.7,286047003.3,N
1606802275.6,286047003.5,N
1606802295.4,286047003.3,N
1606802315.2,286047003.7,N
1606802335.1,286047003.6,N
1606802336.0,286047003.6,N
1606802355.8,286047005.9,N
1606802375.6,286047003.2,N
1606802395.5,286047007.5,N
